Location: Clyde
(45.1830°S, 169.3170°E)
Time: 13:25:27
(UTC+13:00)

Daily predictions for brighter satellites

Satellite Brightness Start Highest point End
(mag) Time Altitude Azimuth Time Altitude Azimuth Time Altitude Azimuth
CZ-2C R/B 3.2 21:50:04 10° NE 21:55:13 44° ESE 22:00:20 10° S
USA 234 4.0 21:49:48 10° SE 21:56:18 60° SSW 22:02:46 10° WNW
Cosmos 1151 Rocket 3.4 21:52:28 10° NNE 21:56:35 46° E 22:00:47 10° SSE
Thor Agena Rocket 4.4 21:51:51 10° N 21:56:52 51° W 22:01:54 10° SSW
SWAS 4.5 21:55:49 10° NNW 22:00:10 86° ENE 22:04:34 10° SSE
Cosmos 2208 Rocket 4.0 21:57:23 10° SSW 22:02:40 82° ESE 22:07:56 10° NNE
Cosmos 2315 Rocket 4.1 21:57:38 10° S 22:04:03 68° E 22:10:19 10° NNE
SPOT 3 Rocket 3.6 21:59:01 10° SSE 22:04:18 78° ENE 22:09:30 10° N
CZ-4C R/B 4.2 22:02:12 10° SSW 22:06:46 21° SSE 22:10:52 10° ESE
H-2A R/B 4.1 22:10:14 10° NNE 22:12:44 13° NE 22:16:56 10° ENE
Cosmos 1633 Rocket 3.8 22:09:56 10° SSW 22:14:17 57° W 22:18:36 10° N
Cosmos 540 Rocket 4.3 22:09:44 10° S 22:14:38 38° ESE 22:19:09 12° NE
ATLAS 3B R/B 4.4 22:18:33 10° ENE 22:20:27 11° E 22:22:22 10° E
Cosmos 1862 3.3 22:23:05 10° S 22:27:11 71° E 22:31:06 11° NNE
BREEZE-M DEB (TANK) 2.1 22:23:08 10° WNW 22:27:37 47° NNE 22:29:45 11° E
Elektron 1 4.4 22:23:50 10° NW 22:28:47 78° SW 22:31:52 10° SE
Cosmos 1763 Rocket 3.7 22:23:51 10° SSW 22:29:09 76° WNW 22:34:19 10° NNE
Atlas Centaur 2 4.0 22:24:15 10° NW 22:31:03 27° N 22:36:40 14° NE
SJ-6B 3.4 22:29:09 10° S 22:32:55 59° WSW 22:36:40 10° NNW
Cosmos 1869 Rocket 4.5 22:29:35 10° S 22:33:39 33° ESE 22:36:31 16° NE
ERBS 3.3 22:30:57 10° SW 22:34:18 40° SSE 22:37:00 14° E
Meteor 2-13 Rocket 4.4 22:30:56 10° N 22:36:59 72° E 22:43:08 10° SSE
Cosmos 724 4.2 22:31:06 10° NNW 22:37:02 83° ENE 22:42:53 10° SE
H-2A R/B 2.5 22:36:51 10° SSE 22:41:40 40° E 22:45:39 14° NNE
Cosmos 1486 Rocket 4.3 22:38:26 10° N 22:43:26 47° ENE 22:48:29 10° SSE
SL-16 R/B 2.3 22:40:19 10° NNW 22:46:01 83° WSW 22:51:47 10° SSE
Cosmos 1933 Rocket 4.1 22:43:28 10° SSW 22:47:52 60° W 22:52:11 10° N
Mayak 0.5 22:46:27 14° E 22:48:33 20° ESE 22:51:40 10° SSE
Cosmos 2360 Rocket 2.4 22:46:08 10° N 22:51:35 48° ENE 22:57:04 10° SE
Lacrosse 5 rocket 3.6 22:49:45 10° SSW 22:52:17 17° SSE 22:54:48 10° ESE
Lacrosse 5 3.8 22:53:20 10° WSW 22:57:06 21° WNW 23:00:51 10° N
Cosmos 2228 Rocket 3.7 22:52:53 10° NNW 22:57:16 59° W 23:01:43 10° S
Cosmos 1707 Rocket 4.3 22:55:33 22° NE 22:57:37 35° E 23:01:38 10° SSE
Cosmos 1242 Rocket 3.0 22:54:19 10° SSW 22:58:03 63° W 23:00:53 16° N
USA 186 4.3 22:55:59 10° SSW 22:58:17 21° WSW 23:00:27 10° WNW
Cosmos 1844 Rocket 3.4 22:53:42 10° SSW 22:59:03 41° SE 23:02:38 19° ENE
Cosmos 841 Rocket 3.9 22:54:41 10° SSW 22:59:59 64° WNW 23:04:13 16° N
Cosmos 1933 3.3 22:58:17 16° N 23:01:31 70° E 23:05:41 10° SSE
Helios 1B rocket 2.7 23:00:45 25° NE 23:02:59 55° ESE 23:07:06 10° S
COSMOS 2428 3.9 23:03:04 21° NE 23:04:37 23° E 23:09:04 10° SE
Cosmos 2322 Rocket 2.6 22:59:40 10° NW 23:05:19 66° WSW 23:11:04 10° SSE
Cosmos 1745 Rocket 4.1 23:05:15 14° N 23:10:45 68° E 23:17:06 10° SSE
Cosmos 968 Rocket 4.3 23:08:48 25° NE 23:10:45 32° E 23:15:24 10° SE
ADEOS Rocket 3.5 23:05:56 10° N 23:11:22 50° W 23:16:46 10° SSW
Terra 3.8 23:14:23 10° ESE 23:16:41 13° E 23:16:50 13° E
Cosmos 1633 3.0 23:13:40 10° SSW 23:17:16 59° W 23:19:15 24° NNW
Resurs 01 Rocket 2.2 23:13:38 10° S 23:18:04 59° WSW 23:22:26 10° NNW
ARGOS 3.1 23:12:49 10° SSE 23:18:18 89° ENE 23:23:32 11° NNW
Spot 2 Rocket 3.5 23:15:40 10° SSE 23:20:53 85° ENE 23:25:12 15° NNW
Meteor 1-25 Rocket 4.4 23:16:48 10° S 23:22:41 68° ESE 23:25:57 27° NNE
Cosmos 2322 3.8 23:18:11 16° N 23:22:44 57° ENE 23:28:19 10° SSE
MetOp-B 4.2 23:17:31 10° SSE 23:22:54 57° E 23:25:59 25° N
Meteor 2-8 Rocket 4.4 23:20:05 10° S 23:26:15 87° W 23:30:14 23° N
Cosmos 2263 Rocket 3.7 23:21:29 10° SW 23:26:21 30° WNW 23:30:54 11° NNW
Cosmos 1606 2.8 23:25:39 37° NNE 23:26:59 61° E 23:30:56 10° SSE
Timation 1 Rocket 4.5 23:22:17 10° SSW 23:28:20 73° WNW 23:31:47 27° NNE
CENTAUR R/B 4.2 23:28:52 20° ENE 23:29:13 20° ENE 23:34:09 10° ESE
Cosmos 2278 Rocket 3.7 23:30:32 10° S 23:35:19 26° SE 23:38:32 16° E
CZ-2C R/B 4.4 23:31:02 10° NNW 23:35:39 28° W 23:40:15 10° SW
Cosmos 2333 Rocket 3.0 23:35:00 30° NE 23:36:14 33° ENE 23:41:21 10° SE
IRAS Rocket 4.3 23:31:13 10° SSE 23:36:50 63° ENE 23:39:47 28° N
Cosmos 2181 Rocket 4.5 23:31:05 10° S 23:37:04 46° ESE 23:39:48 29° NE
Cosmos 2219 Rocket 2.8 23:36:24 32° NE 23:37:45 36° ENE 23:42:56 10° SE
SL-08 RB Rocket 4.0 23:34:47 10° S 23:39:19 65° WSW 23:42:47 17° NNW
SeaSat 1 2.9 23:38:26 10° SE 23:43:08 40° ENE 23:43:59 37° NE
Gbstr 26 Del rocket 3.8 23:41:01 10° SW 23:44:50 41° SSE 23:46:54 22° ESE
BREEZE-M DEB (TANK) 3.5 23:40:39 10° W 23:46:59 56° SSW 23:49:18 13° ESE
Cosmos 2237 Rocket 3.6 23:51:01 20° E 23:51:01 20° E 23:54:54 10° SE
Cosmos 1340 Rocket 3.2 23:50:56 45° E 23:51:03 45° E 23:54:56 10° SSE
Cosmos 1818 3.4 23:47:57 20° NNW 23:51:45 72° ENE 23:57:08 10° SE
